Time,TemperatureF,DewpointF,PressureIn,WindDirection,WindDirectionDegrees,WindSpeedMPH,WindSpeedGustMPH,Humidity,HourlyPrecipIn,Conditions,Clouds,dailyrainin,SoftwareType,DateUTC
2013-08-20 00:00:00,74.8,68.0,29.86,SSE,163,10.0,15.0,80,0.00,,,0.00,weatherlink.com 1.10,2013-08-20 05:00:00,
2013-08-20 00:15:00,74.5,68.0,29.85,South,170,5.0,13.0,80,0.00,,,0.00,weatherlink.com 1.10,2013-08-20 05:15:00,
2013-08-20 00:30:00,74.2,68.0,29.86,SSW,193,11.0,16.0,80,0.00,,,0.00,weatherlink.com 1.10,2013-08-20 05:30:00,
2013-08-20 00:45:00,74.2,68.0,29.85,South,180,6.0,14.0,80,0.00,,,0.00,weatherlink.com 1.10,2013-08-20 05:45:00,
2013-08-20 01:00:00,74.3,68.0,29.85,SSE,157,9.0,15.0,80,0.00,,,0.00,weatherlink.com 1.10,2013-08-20 06:00:00,
2013-08-20 01:15:00,74.1,68.0,29.85,South,172,8.0,16.0,80,0.00,,,0.00,weatherlink.com 1.10,2013-08-20 06:15:00,
2013-08-20 01:30:00,74.0,68.0,29.85,South,184,9.0,18.0,81,0.00,,,0.00,weatherlink.com 1.10,2013-08-20 06:30:00,
2013-08-20 01:45:00,73.8,68.0,29.85,SSE,163,11.0,16.0,81,0.00,,,0.00,weatherlink.com 1.10,2013-08-20 06:45:00,
2013-08-20 02:00:00,73.6,67.0,29.85,South,183,12.0,16.0,81,0.00,,,0.00,weatherlink.com 1.10,2013-08-20 07:00:00,
2013-08-20 02:15:00,73.3,68.0,29.84,South,180,15.0,16.0,82,0.00,,,0.00,weatherlink.com 1.10,2013-08-20 07:15:00,
2013-08-20 02:30:00,73.0,68.0,29.84,South,183,12.0,19.0,83,0.00,,,0.00,weatherlink.com 1.10,2013-08-20 07:30:00,
2013-08-20 02:45:00,72.8,67.0,29.84,South,181,10.0,17.0,83,0.00,,,0.00,weatherlink.com 1.10,2013-08-20 07:45:00,
2013-08-20 03:00:00,72.6,67.0,29.85,SSW,204,12.0,17.0,83,0.00,,,0.00,weatherlink.com 1.10,2013-08-20 08:00:00,
2013-08-20 03:15:00,72.6,67.0,29.84,South,181,7.0,19.0,83,0.00,,,0.00,weatherlink.com 1.10,2013-08-20 08:15:00,
2013-08-20 03:30:00,72.8,67.0,29.84,SSW,202,5.0,18.0,83,0.00,,,0.00,weatherlink.com 1.10,2013-08-20 08:30:00,
2013-08-20 03:45:00,73.1,67.0,29.84,South,186,10.0,19.0,82,0.00,,,0.00,weatherlink.com 1.10,2013-08-20 08:45:00,
2013-08-20 04:00:00,73.1,67.0,29.84,South,178,9.0,21.0,82,0.00,,,0.00,weatherlink.com 1.10,2013-08-20 09:00:00,
2013-08-20 04:15:00,72.9,68.0,29.84,SSW,195,6.0,17.0,83,0.00,,,0.00,weatherlink.com 1.10,2013-08-20 09:15:00,
2013-08-20 04:31:00,72.9,68.0,29.84,South,170,8.0,17.0,83,0.00,,,0.00,weatherlink.com 1.10,2013-08-20 09:31:00,
2013-08-20 04:46:00,72.6,67.0,29.84,SSW,207,8.0,17.0,83,0.00,,,0.00,weatherlink.com 1.10,2013-08-20 09:46:00,
2013-08-20 05:01:00,72.4,67.0,29.84,SSW,201,8.0,17.0,84,0.00,,,0.00,weatherlink.com 1.10,2013-08-20 10:01:00,
2013-08-20 05:16:00,72.1,67.0,29.84,SW,221,8.0,15.0,84,0.00,,,0.00,weatherlink.com 1.10,2013-08-20 10:16:00,
2013-08-20 05:31:00,72.0,67.0,29.84,SSE,166,7.0,15.0,84,0.00,,,0.00,weatherlink.com 1.10,2013-08-20 10:31:00,
2013-08-20 05:46:00,71.8,67.0,29.84,SW,225,9.0,15.0,85,0.00,,,0.00,weatherlink.com 1.10,2013-08-20 10:46:00,
2013-08-20 06:01:00,71.7,67.0,29.84,SSW,201,13.0,17.0,85,0.00,,,0.00,weatherlink.com 1.10,2013-08-20 11:01:00,
2013-08-20 06:16:00,71.6,67.0,29.83,SSW,195,13.0,17.0,85,0.00,,,0.00,weatherlink.com 1.10,2013-08-20 11:16:00,
2013-08-20 06:31:00,71.6,67.0,29.84,SSW,203,5.0,20.0,85,0.00,,,0.00,weatherlink.com 1.10,2013-08-20 11:31:00,
2013-08-20 06:46:00,71.6,67.0,29.84,SSW,197,5.0,16.0,85,0.00,,,0.00,weatherlink.com 1.10,2013-08-20 11:46:00,
2013-08-20 07:01:00,71.2,67.0,29.84,SSW,202,7.0,17.0,86,0.00,,,0.00,weatherlink.com 1.10,2013-08-20 12:01:00,
2013-08-20 07:16:00,70.8,67.0,29.84,SW,219,8.0,15.0,86,0.00,,,0.00,weatherlink.com 1.10,2013-08-20 12:16:00,
2013-08-20 07:31:00,70.9,67.0,29.84,South,183,7.0,16.0,86,0.00,,,0.00,weatherlink.com 1.10,2013-08-20 12:31:00,
2013-08-20 07:46:00,71.3,67.0,29.85,South,178,5.0,16.0,86,0.00,,,0.00,weatherlink.com 1.10,2013-08-20 12:46:00,
2013-08-20 08:01:00,71.5,67.0,29.85,SSW,194,7.0,16.0,85,0.00,,,0.00,weatherlink.com 1.10,2013-08-20 13:01:00,
2013-08-20 08:16:00,72.1,67.0,29.86,South,187,8.0,17.0,84,0.00,,,0.00,weatherlink.com 1.10,2013-08-20 13:16:00,
2013-08-20 08:31:00,72.6,67.0,29.86,South,190,20.0,20.0,83,0.00,,,0.00,weatherlink.com 1.10,2013-08-20 13:31:00,
2013-08-20 08:46:00,73.1,68.0,29.86,SW,219,6.0,17.0,83,0.00,,,0.00,weatherlink.com 1.10,2013-08-20 13:46:00,
2013-08-20 09:01:00,73.3,68.0,29.86,SSW,211,7.0,19.0,82,0.00,,,0.00,weatherlink.com 1.10,2013-08-20 14:01:00,
2013-08-20 09:16:00,73.9,68.0,29.86,South,188,6.0,19.0,81,0.00,,,0.00,weatherlink.com 1.10,2013-08-20 14:16:00,
2013-08-20 09:31:00,74.8,68.0,29.86,SSW,198,4.0,22.0,80,0.00,,,0.00,weatherlink.com 1.10,2013-08-20 14:31:00,
2013-08-20 09:46:00,75.8,69.0,29.86,SSW,194,8.0,15.0,78,0.00,,,0.00,weatherlink.com 1.10,2013-08-20 14:46:00,
2013-08-20 10:01:00,76.9,69.0,29.86,South,179,7.0,14.0,77,0.00,,,0.00,weatherlink.com 1.10,2013-08-20 15:01:00,
2013-08-20 10:16:00,77.3,69.0,29.86,SW,214,2.0,17.0,75,0.00,,,0.00,weatherlink.com 1.10,2013-08-20 15:16:00,
2013-08-20 10:31:00,78.1,69.0,29.87,SSW,207,5.0,18.0,73,0.00,,,0.00,weatherlink.com 1.10,2013-08-20 15:31:00,
2013-08-20 10:46:00,78.4,69.0,29.86,SSW,209,8.0,22.0,72,0.00,,,0.00,weatherlink.com 1.10,2013-08-20 15:46:00,
2013-08-20 11:01:00,79.2,69.0,29.86,SE,143,11.0,20.0,72,0.00,,,0.00,weatherlink.com 1.10,2013-08-20 16:01:00,
2013-08-20 11:16:00,79.7,70.0,29.86,SSW,209,10.0,17.0,72,0.00,,,0.00,weatherlink.com 1.10,2013-08-20 16:16:00,
2013-08-20 11:31:00,80.3,70.0,29.86,South,173,8.0,17.0,70,0.00,,,0.00,weatherlink.com 1.10,2013-08-20 16:31:00,
2013-08-20 11:46:00,81.0,70.0,29.86,SSW,200,6.0,17.0,70,0.00,,,0.00,weatherlink.com 1.10,2013-08-20 16:46:00,
2013-08-20 12:01:00,81.5,70.0,29.86,SSW,193,6.0,20.0,69,0.00,,,0.00,weatherlink.com 1.10,2013-08-20 17:01:00,
2013-08-20 12:16:00,82.9,71.0,29.86,SW,217,4.0,12.0,68,0.00,,,0.00,weatherlink.com 1.10,2013-08-20 17:16:00,
2013-08-20 12:31:00,82.7,71.0,29.85,WSW,249,9.0,17.0,67,0.00,,,0.00,weatherlink.com 1.10,2013-08-20 17:31:00,
2013-08-20 12:46:00,83.4,71.0,29.85,SSW,206,8.0,16.0,66,0.00,,,0.00,weatherlink.com 1.10,2013-08-20 17:46:00,
2013-08-20 13:01:00,83.9,71.0,29.84,South,184,4.0,18.0,65,0.00,,,0.00,weatherlink.com 1.10,2013-08-20 18:01:00,
2013-08-20 13:16:00,84.3,72.0,29.84,WSW,248,8.0,18.0,66,0.00,,,0.00,weatherlink.com 1.10,2013-08-20 18:16:00,
2013-08-20 13:32:00,84.6,72.0,29.84,SSW,198,12.0,20.0,65,0.00,,,0.00,weatherlink.com 1.10,2013-08-20 18:32:00,
2013-08-20 13:47:00,85.1,72.0,29.84,SSW,205,7.0,16.0,65,0.00,,,0.00,weatherlink.com 1.10,2013-08-20 18:47:00,
2013-08-20 14:02:00,85.4,72.0,29.83,South,176,10.0,17.0,64,0.00,,,0.00,weatherlink.com 1.10,2013-08-20 19:02:00,
2013-08-20 14:17:00,86.1,72.0,29.83,SW,215,8.0,14.0,62,0.00,,,0.00,weatherlink.com 1.10,2013-08-20 19:17:00,
2013-08-20 14:32:00,85.9,71.0,29.83,South,187,9.0,16.0,62,0.00,,,0.00,weatherlink.com 1.10,2013-08-20 19:32:00,
2013-08-20 14:47:00,86.7,72.0,29.83,South,175,15.0,16.0,62,0.00,,,0.00,weatherlink.com 1.10,2013-08-20 19:47:00,
2013-08-20 15:02:00,86.9,72.0,29.82,SSE,163,6.0,15.0,62,0.00,,,0.00,weatherlink.com 1.10,2013-08-20 20:02:00,
2013-08-20 15:17:00,87.3,72.0,29.82,South,182,5.0,16.0,61,0.00,,,0.00,weatherlink.com 1.10,2013-08-20 20:17:00,
2013-08-20 15:32:00,87.6,72.0,29.81,South,184,5.0,18.0,60,0.00,,,0.00,weatherlink.com 1.10,2013-08-20 20:32:00,
2013-08-20 15:47:00,87.6,72.0,29.81,SSW,200,7.0,15.0,60,0.00,,,0.00,weatherlink.com 1.10,2013-08-20 20:47:00,
2013-08-20 16:02:00,88.1,73.0,29.80,South,188,4.0,13.0,61,0.00,,,0.00,weatherlink.com 1.10,2013-08-20 21:02:00,
2013-08-20 16:17:00,87.6,72.0,29.80,SSE,167,5.0,15.0,60,0.00,,,0.00,weatherlink.com 1.10,2013-08-20 21:17:00,
2013-08-20 16:32:00,88.2,74.0,29.80,SSW,205,8.0,16.0,62,0.00,,,0.00,weatherlink.com 1.10,2013-08-20 21:32:00,
2013-08-20 16:47:00,87.9,73.0,29.80,South,189,8.0,14.0,62,0.00,,,0.00,weatherlink.com 1.10,2013-08-20 21:47:00,
2013-08-20 17:02:00,87.5,72.0,29.80,South,179,11.0,17.0,60,0.00,,,0.00,weatherlink.com 1.10,2013-08-20 22:02:00,
2013-08-20 17:17:00,87.7,73.0,29.80,South,169,5.0,13.0,61,0.00,,,0.00,weatherlink.com 1.10,2013-08-20 22:17:00,
2013-08-20 17:32:00,87.2,73.0,29.80,SSW,205,12.0,17.0,63,0.00,,,0.00,weatherlink.com 1.10,2013-08-20 22:32:00,
2013-08-20 17:47:00,87.0,73.0,29.80,South,172,6.0,15.0,63,0.00,,,0.00,weatherlink.com 1.10,2013-08-20 22:47:00,
2013-08-20 18:02:00,86.7,73.0,29.80,South,182,5.0,16.0,63,0.00,,,0.00,weatherlink.com 1.10,2013-08-20 23:02:00,
2013-08-20 18:17:00,86.3,72.0,29.80,SSW,203,11.0,14.0,63,0.00,,,0.00,weatherlink.com 1.10,2013-08-20 23:17:00,
2013-08-20 18:32:00,85.9,72.0,29.80,South,190,11.0,16.0,64,0.00,,,0.00,weatherlink.com 1.10,2013-08-20 23:32:00,
2013-08-20 18:47:00,85.3,72.0,29.80,SE,138,14.0,15.0,65,0.00,,,0.00,weatherlink.com 1.10,2013-08-20 23:47:00,
2013-08-20 19:02:00,84.6,71.0,29.80,South,172,8.0,14.0,64,0.00,,,0.00,weatherlink.com 1.10,2013-08-21 00:02:00,
2013-08-20 19:17:00,84.1,71.0,29.80,South,186,9.0,13.0,65,0.00,,,0.00,weatherlink.com 1.10,2013-08-21 00:17:00,
2013-08-20 19:32:00,83.6,71.0,29.80,SSW,194,5.0,11.0,66,0.00,,,0.00,weatherlink.com 1.10,2013-08-21 00:32:00,
2013-08-20 19:47:00,83.3,71.0,29.80,South,187,4.0,12.0,66,0.00,,,0.00,weatherlink.com 1.10,2013-08-21 00:47:00,
2013-08-20 20:02:00,82.7,71.0,29.81,SSW,192,7.0,9.0,67,0.00,,,0.00,weatherlink.com 1.10,2013-08-21 01:02:00,
2013-08-20 20:17:00,82.3,71.0,29.81,South,177,6.0,11.0,68,0.00,,,0.00,weatherlink.com 1.10,2013-08-21 01:17:00,
2013-08-20 20:32:00,81.8,71.0,29.81,SSE,155,6.0,10.0,69,0.00,,,0.00,weatherlink.com 1.10,2013-08-21 01:32:00,
2013-08-20 20:47:00,81.4,70.0,29.81,SSE,155,7.0,9.0,69,0.00,,,0.00,weatherlink.com 1.10,2013-08-21 01:47:00,
2013-08-20 21:02:00,80.9,70.0,29.82,South,180,4.0,9.0,70,0.00,,,0.00,weatherlink.com 1.10,2013-08-21 02:02:00,
2013-08-20 21:17:00,80.8,70.0,29.82,SSE,157,7.0,12.0,70,0.00,,,0.00,weatherlink.com 1.10,2013-08-21 02:17:00,
2013-08-20 21:32:00,80.2,70.0,29.83,SSE,164,6.0,10.0,71,0.00,,,0.00,weatherlink.com 1.10,2013-08-21 02:32:00,
2013-08-20 21:47:00,80.0,70.0,29.83,South,186,7.0,11.0,72,0.00,,,0.00,weatherlink.com 1.10,2013-08-21 02:47:00,
2013-08-20 22:02:00,79.8,70.0,29.83,SSE,165,7.0,12.0,72,0.00,,,0.00,weatherlink.com 1.10,2013-08-21 03:02:00,
2013-08-20 22:17:00,79.7,70.0,29.84,SSE,164,6.0,13.0,72,0.00,,,0.00,weatherlink.com 1.10,2013-08-21 03:17:00,
2013-08-20 22:32:00,79.3,70.0,29.84,South,178,7.0,12.0,74,0.00,,,0.00,weatherlink.com 1.10,2013-08-21 03:32:00,
2013-08-20 22:47:00,79.2,70.0,29.83,South,171,6.0,14.0,74,0.00,,,0.00,weatherlink.com 1.10,2013-08-21 03:47:00,
2013-08-20 23:02:00,79.1,70.0,29.84,South,186,9.0,15.0,74,0.00,,,0.00,weatherlink.com 1.10,2013-08-21 04:02:00,
2013-08-20 23:17:00,78.8,70.0,29.83,SSW,211,7.0,16.0,74,0.00,,,0.00,weatherlink.com 1.10,2013-08-21 04:17:00,
2013-08-20 23:32:00,78.5,70.0,29.83,South,173,8.0,17.0,74,0.00,,,0.00,weatherlink.com 1.10,2013-08-21 04:32:00,
2013-08-20 23:47:00,78.3,69.0,29.83,SSW,202,10.0,18.0,74,0.00,,,0.00,weatherlink.com 1.10,2013-08-21 04:47:00,